Torna al catalogo

STARLINK-11360

AttivoComunicazioniVLEO
NORAD 61586·PAYLOAD·🇺🇸 United States

Lanciato Oct 18, 2024 da Cape Canaveral Space Force Station

Loading…

Prossimi Passaggi (prossime 24 ore)

TLE

AggiornatoSource: CelesTrak SupGP

Epoca: Sep 14, 2026, 21:01 UTC

1 61586C 24187N   26257.87618056  .00003957  00000+0  32598-4 0  2572
2 61586  53.1570  83.7086 0001201  79.5091 262.4446 15.69706213    15

Traccia STARLINK-11360 in tempo reale con AllMySat

Download on the App Store